Tracking 17143 objects as of 25-May-2015
HD Live streaming from Space Station

MOLNIYA 3-51

Track MOLNIYA 3-51 now!
MOLNIYA 3-51 is classified as:


NORAD ID: 26867
Int'l Code: 2001-030A
Perigee: 270.6 km
Apogee: 32,613.0 km
Inclination: 62.5 °
Period: 571.5 minutes
Semi major axis: 22812 km
RCS: 12.5893 m2 (large)
Launch date: July 20, 2001
Source: Commonwealth of Independent States (former USSR) (CIS)

Can carry satellite broadcast television as well as military and manned voice communcations; highly elliptical orbit developed for northern latitudes beyond reach of geostationary satellites.
Your satellite tracking list
Your tracking list is empty





NASA's NSSDC Master Catalog

Two Line Element Set (TLE):
1 26867U 01030A   15145.16361748  .00002145  00000-0  61563-3 0  9991
2 26867 062.4704 226.3447 7088660 261.2698 089.3306 02.51962486103658

Source of the keplerian elements: AFSPC

N2YO: 364